Location: Dehesa de la Cepeda
(40.6574°N, 4.3013°W)
Time: 11:21:07
(UTC+00:00)

Vanguard 2 Rocket - Pass Details

Date: 01 November 2021
Orbit: 555 x 3324 km, 32.9° (Epoch: 09 December)

Event Time Altitude Azimuth Distance (km) Brightness Sun altitude
Exits shadow 05:33:47 13° 256° (WSW) 5,556 10.3 -14.5°
Maximum altitude 05:48:56 61° 183° (S) 2,315 8.9 -11.6°
Drops below altitude 10° 05:58:23 10° 106° (ESE) 3,546 11.6 -9.8°
Sets 06:00:47 0° 102° (ESE) 4,239 12.8 -9.4°
